Flag for U.S.A. Weather past 2 weeks in Oceanside, California, U.S.A.

Now
69 °F

Overcast.


Feels Like: 69 °F
Forecast: 64 / 79 °F
Wind: 3 mph from East

Location: Oceanside Weather Reporting Station

Current Time: Sep 2, 2014 at 2:14:12 AM

Latest Report: Sep 2, 2014 at 1:52 AM


Visibility: 9 mi

Pressure: 29.83 "Hg

Humidity: 79%

Dew point: 62 °F

Location of OceansideLocation

Historic Weather in Oceanside — Graph

°F

Oceanside temperature yesterday

Maximum temperature yesterday: 79 °F (at 12:52 PM)
Minimum temperature yesterday: 64 °F (at 10:52 PM)
Average temperature yesterday: 72 °F

Past Weeks' High & Low Weather Summary

 TemperatureHumidityPressure
High86 °F (Aug 27, 1:52 PM)91% (Aug 31, 1:52 AM)30.01 "Hg (Aug 31, 1:52 AM)
Low59 °F (Aug 29, 5:52 AM)31% (Aug 27, 2:52 PM)29.74 "Hg (Aug 30, 5:52 PM)
Average71 °F73%29.88 "Hg
* Reported Aug 18 12:52 AM — Sep 2 12:52 AM, Oceanside, Weather by CustomWeather, © 2014

Note: Actual official high and low records may vary slightly from our data, if they occured in-between our weather recording intervals... More about our weather records

Advertising

Oceanside weather history for previous 24 hours

 ConditionsComfort  
Time TempWeatherWind HumidityBarometerVisibility
12:52 AM
Sep 2
67 °FOvercast.3 mph85%29.84 "Hg8 mi
11:52 PM
Sep 1
64 °FMostly cloudy.No wind84%29.83 "Hg7 mi
10:52 PM64 °FOvercast.No wind84%29.82 "Hg8 mi
9:52 PM67 °FClear.No wind79%29.82 "Hg9 mi
8:52 PM68 °FClear.No wind78%29.81 "Hg9 mi
7:52 PM71 °FSunny.6 mph76%29.79 "Hg9 mi
6:52 PM72 °FSunny.6 mph71%29.78 "Hg8 mi
5:52 PM74 °FSunny.5 mph67%29.78 "Hg9 mi
4:52 PM76 °FSunny.6 mph62%29.78 "Hg9 mi
3:52 PM78 °FSunny.7 mph58%29.78 "Hg10 mi
2:52 PM77 °FSunny.7 mph60%29.79 "Hg9 mi
1:52 PM79 °FSunny.9 mph58%29.80 "Hg9 mi
12:52 PM79 °FSunny.9 mph58%29.81 "Hg9 mi
11:52 AM78 °FSunny.10 mph60%29.83 "Hg9 mi
10:52 AM78 °FSunny.8 mph60%29.83 "Hg9 mi
9:52 AM75 °FSunny.6 mph62%29.83 "Hg9 mi
9:04 AM72 °FScattered clouds.6 mph71%29.83 "Hg8 mi
8:52 AM72 °FPartly sunny.3 mph71%29.83 "Hg8 mi
7:52 AM70 °FOvercast.5 mph79%29.82 "Hg7 mi
6:52 AM68 °FOvercast.3 mph82%29.82 "Hg8 mi
6:02 AM67 °FPassing clouds.5 mph85%29.81 "Hg8 mi
5:52 AM66 °FPassing clouds.3 mph84%29.80 "Hg8 mi
4:52 AM68 °FPassing clouds.5 mph82%29.80 "Hg8 mi
3:52 AM69 °FOvercast.7 mph81%29.80 "Hg8 mi
2:52 AM69 °FOvercast.6 mph84%29.80 "Hg8 mi
Weather by CustomWeather, © 2014

See weather overviewHow to use our weather pages